TimeCDT,TemperatureF,Dew PointF,Humidity,Sea Level PressureIn,VisibilityMPH,Wind Direction,Wind SpeedMPH,Gust SpeedMPH,PrecipitationIn,Events,Conditions,WindDirDegrees,DateUTC
12:15 AM,63.3,63.0,99,29.79,7.0,West,4.6,-,N/A,,Clear,280,2013-09-20 05:15:00
12:35 AM,62.8,62.6,99,29.78,7.0,WNW,4.6,-,N/A,,Clear,290,2013-09-20 05:35:00
12:55 AM,63.1,62.6,98,29.78,10.0,West,6.9,-,N/A,,Clear,280,2013-09-20 05:55:00
1:15 AM,62.8,61.7,96,29.79,10.0,West,9.2,-,N/A,,Clear,270,2013-09-20 06:15:00
1:35 AM,62.6,60.1,91,29.80,10.0,West,10.4,-,N/A,,Clear,260,2013-09-20 06:35:00
1:55 AM,61.5,59.0,91,29.80,10.0,West,8.1,-,N/A,,Clear,270,2013-09-20 06:55:00
2:15 AM,61.2,57.7,88,29.81,10.0,West,9.2,-,N/A,,Clear,260,2013-09-20 07:15:00
2:35 AM,60.8,56.8,87,29.80,10.0,West,6.9,-,N/A,,Clear,270,2013-09-20 07:35:00
2:55 AM,60.1,56.3,87,29.80,10.0,West,8.1,-,N/A,,Clear,270,2013-09-20 07:55:00
3:15 AM,59.5,55.8,87,29.81,10.0,West,10.4,-,N/A,,Clear,260,2013-09-20 08:15:00
3:35 AM,59.4,55.6,87,29.81,10.0,West,9.2,-,N/A,,Scattered Clouds,260,2013-09-20 08:35:00
3:55 AM,59.0,55.6,88,29.82,10.0,West,9.2,-,N/A,Rain,Light Rain,260,2013-09-20 08:55:00
4:15 AM,58.5,55.9,91,29.82,10.0,WSW,6.9,-,N/A,Rain,Rain,250,2013-09-20 09:15:00
4:35 AM,58.1,55.9,93,29.82,10.0,West,5.8,-,N/A,,Overcast,270,2013-09-20 09:35:00
4:55 AM,57.6,55.8,94,29.82,10.0,West,4.6,-,N/A,,Overcast,270,2013-09-20 09:55:00
5:15 AM,57.6,55.9,94,29.82,10.0,West,8.1,-,N/A,,Overcast,260,2013-09-20 10:15:00
5:35 AM,57.7,55.8,93,29.81,10.0,West,4.6,-,N/A,,Overcast,270,2013-09-20 10:35:00
5:55 AM,57.7,55.9,94,29.81,10.0,West,9.2,-,N/A,,Overcast,260,2013-09-20 10:55:00
6:15 AM,57.6,55.4,92,29.81,10.0,West,13.8,-,N/A,,Overcast,260,2013-09-20 11:15:00
6:35 AM,57.2,55.4,94,29.81,10.0,West,9.2,-,N/A,,Overcast,260,2013-09-20 11:35:00
6:55 AM,57.2,55.4,94,29.82,10.0,West,9.2,-,N/A,,Overcast,260,2013-09-20 11:55:00
7:15 AM,57.2,55.0,92,29.83,10.0,West,8.1,-,N/A,,Overcast,260,2013-09-20 12:15:00
7:35 AM,57.2,55.0,92,29.83,10.0,WSW,10.4,-,N/A,,Overcast,250,2013-09-20 12:35:00
7:55 AM,57.4,55.2,92,29.83,10.0,WSW,8.1,-,N/A,,Overcast,250,2013-09-20 12:55:00
8:15 AM,57.7,55.4,92,29.84,10.0,West,10.4,-,N/A,,Overcast,260,2013-09-20 13:15:00
8:35 AM,57.7,55.4,92,29.84,10.0,West,11.5,-,N/A,,Overcast,260,2013-09-20 13:35:00
8:55 AM,57.7,54.9,90,29.84,10.0,WSW,10.4,-,N/A,,Overcast,250,2013-09-20 13:55:00
9:15 AM,58.3,55.2,90,29.84,10.0,West,13.8,17.3,N/A,,Overcast,260,2013-09-20 14:15:00
9:35 AM,58.3,55.4,90,29.84,10.0,West,11.5,-,N/A,,Overcast,260,2013-09-20 14:35:00
9:55 AM,58.6,55.4,89,29.85,10.0,West,11.5,19.6,N/A,,Overcast,270,2013-09-20 14:55:00
10:15 AM,58.6,55.6,90,29.85,10.0,West,10.4,-,N/A,,Overcast,270,2013-09-20 15:15:00
10:35 AM,59.7,55.9,87,29.85,10.0,West,10.4,-,N/A,,Overcast,270,2013-09-20 15:35:00
10:55 AM,59.0,57.2,94,29.85,5.0,WNW,8.1,-,N/A,Rain,Rain,290,2013-09-20 15:55:00
11:15 AM,59.2,57.2,93,29.86,10.0,West,9.2,-,N/A,Rain,Light Rain,280,2013-09-20 16:15:00
11:35 AM,58.1,56.3,94,29.86,5.0,NW,8.1,17.3,N/A,Rain,Light Rain,310,2013-09-20 16:35:00
11:55 AM,57.0,56.1,97,29.87,4.0,WNW,9.2,19.6,0.02,Rain,Light Rain,290,2013-09-20 16:55:00
12:15 PM,57.6,56.3,96,29.87,7.0,WNW,8.1,19.6,N/A,,Overcast,300,2013-09-20 17:15:00
12:35 PM,58.6,56.3,92,29.87,10.0,WNW,10.4,18.4,N/A,,Overcast,290,2013-09-20 17:35:00
12:55 PM,59.4,54.7,84,29.87,10.0,NW,10.4,21.9,N/A,,Overcast,310,2013-09-20 17:55:00
1:15 PM,59.2,53.6,82,29.88,10.0,WNW,10.4,17.3,N/A,,Overcast,290,2013-09-20 18:15:00
1:35 PM,60.8,52.7,75,29.87,10.0,WNW,11.5,-,N/A,,Overcast,300,2013-09-20 18:35:00
1:55 PM,60.8,51.8,72,29.87,10.0,NW,11.5,16.1,N/A,,Overcast,310,2013-09-20 18:55:00
2:15 PM,61.2,52.0,72,29.87,10.0,NW,9.2,-,N/A,,Overcast,310,2013-09-20 19:15:00
2:35 PM,61.7,51.1,68,29.87,10.0,WNW,12.7,17.3,N/A,,Overcast,300,2013-09-20 19:35:00
2:55 PM,64.0,50.9,62,29.87,10.0,NW,11.5,18.4,N/A,,Overcast,320,2013-09-20 19:55:00
3:15 PM,64.4,48.7,57,29.87,10.0,WNW,13.8,-,N/A,,Mostly Cloudy,290,2013-09-20 20:15:00
3:35 PM,63.9,48.2,57,29.87,10.0,WNW,10.4,17.3,N/A,,Scattered Clouds,300,2013-09-20 20:35:00
3:55 PM,63.9,46.9,54,29.87,10.0,NW,9.2,18.4,N/A,,Scattered Clouds,320,2013-09-20 20:55:00
4:15 PM,62.6,46.2,55,29.87,10.0,NW,9.2,-,N/A,,Mostly Cloudy,320,2013-09-20 21:15:00
4:35 PM,61.7,46.8,58,29.87,10.0,NW,6.9,-,N/A,,Overcast,320,2013-09-20 21:35:00
4:55 PM,62.1,48.0,60,29.87,10.0,WNW,5.8,-,N/A,,Overcast,290,2013-09-20 21:55:00
5:15 PM,63.7,47.1,55,29.87,10.0,West,10.4,-,N/A,,Mostly Cloudy,280,2013-09-20 22:15:00
5:35 PM,62.4,45.7,54,29.87,10.0,West,10.4,16.1,N/A,,Mostly Cloudy,280,2013-09-20 22:35:00
5:55 PM,57.2,49.6,76,29.88,5.0,WNW,5.8,-,0.05,Rain,Heavy Rain,290,2013-09-20 22:55:00
6:15 PM,56.5,51.3,83,29.89,10.0,WNW,13.8,-,N/A,,Drizzle,290,2013-09-20 23:15:00
6:35 PM,54.1,52.0,92,29.90,7.0,West,8.1,18.4,N/A,Rain,Light Rain,280,2013-09-20 23:35:00
6:55 PM,53.8,51.6,92,29.90,10.0,West,4.6,-,0.01,Rain,Light Rain,280,2013-09-20 23:55:00
7:15 PM,54.0,51.3,91,29.90,10.0,West,5.8,-,N/A,,Overcast,280,2013-09-21 00:15:00
7:35 PM,54.0,51.8,92,29.91,10.0,WNW,5.8,-,N/A,Rain,Light Rain,290,2013-09-21 00:35:00
7:55 PM,54.0,51.8,92,29.91,10.0,West,4.6,-,N/A,Rain,Light Rain,270,2013-09-21 00:55:00
8:15 PM,53.2,51.8,95,29.91,10.0,West,5.8,-,N/A,,Mostly Cloudy,280,2013-09-21 01:15:00
8:35 PM,52.9,51.4,95,29.92,10.0,West,6.9,-,N/A,,Scattered Clouds,280,2013-09-21 01:35:00
8:55 PM,52.7,50.9,94,29.93,10.0,West,5.8,-,N/A,,Clear,270,2013-09-21 01:55:00
9:15 PM,52.7,50.9,94,29.93,10.0,West,6.9,-,N/A,,Mostly Cloudy,280,2013-09-21 02:15:00
9:35 PM,52.3,50.9,95,29.94,10.0,WNW,8.1,-,N/A,,Mostly Cloudy,290,2013-09-21 02:35:00
9:55 PM,52.0,50.4,94,29.94,10.0,West,5.8,-,N/A,,Scattered Clouds,280,2013-09-21 02:55:00
10:15 PM,51.3,50.0,95,29.94,10.0,West,6.9,-,N/A,,Clear,280,2013-09-21 03:15:00
10:35 PM,51.3,50.0,95,29.94,10.0,West,6.9,-,N/A,,Scattered Clouds,270,2013-09-21 03:35:00
10:55 PM,50.9,49.5,95,29.94,10.0,West,6.9,-,N/A,,Mostly Cloudy,270,2013-09-21 03:55:00
11:15 PM,50.7,49.1,94,29.94,10.0,West,6.9,-,N/A,,Scattered Clouds,280,2013-09-21 04:15:00
11:35 PM,50.0,48.7,95,29.94,10.0,West,6.9,-,N/A,,Clear,280,2013-09-21 04:35:00
11:55 PM,49.8,48.6,95,29.94,10.0,West,5.8,-,N/A,,Scattered Clouds,280,2013-09-21 04:55:00